Flag Weather past 2 weeks in Peshawar, Pakistan

Now
54 °F

Passing clouds.


Feels Like: 54 °F
Forecast: 56 / 77 °F
Wind: No wind

Location: Peshawar Airport

Current Time: Nov 27, 2014 at 5:32:44 AM

Latest Report: Nov 27, 2014 at 5:00 AM


Visibility: 2 mi

Pressure: 29.83 "Hg

Humidity: 72%

Dew point: 45 °F

Location of PeshawarLocation

Historic Weather in Peshawar — Graph

°F

Peshawar temperature yesterday

Maximum temperature yesterday: 77 °F (at 2:00 PM)
Minimum temperature yesterday: 41 °F (at 4:59 AM)
Average temperature yesterday: 59 °F

Past Weeks' High & Low Weather Summary

 TemperatureHumidityPressure
High90 °F (Nov 20, 2:00 PM)88% (Nov 19, 6:00 PM)30.15 "Hg (Nov 19, 6:00 PM)
Low41 °F (Nov 26, 4:59 AM)22% (Nov 20, 2:00 PM)29.80 "Hg (Nov 26, 3:00 PM)
Average61 °F56%30.02 "Hg
* Reported Nov 12 4:59 AM — Nov 27 4:00 AM, Peshawar, Weather by CustomWeather, © 2014

Note: Actual official high and low records may vary slightly from our data, if they occured in-between our weather recording intervals... More about our weather records

Advertising

Peshawar weather history for previous 24 hours

 ConditionsComfort  
Time TempWeatherWind HumidityBarometerVisibility
4:00 AM
Nov 27
54 °FPassing clouds.No wind72%29.83 "Hg2 mi
3:00 AM54 °FPassing clouds.No wind72%29.83 "Hg2 mi
2:00 AM54 °FPassing clouds.No wind72%29.83 "Hg2 mi
1:00 AM54 °FPassing clouds.No wind72%29.83 "Hg2 mi
12:00 AM54 °FHaze.No wind72%29.86 "Hg2 mi
11:00 PM
Nov 26
55 °FHaze.No wind67%29.86 "Hg2 mi
10:00 PM57 °FPassing clouds.No wind63%29.86 "Hg1 mi
9:00 PM59 °FPassing clouds.No wind59%29.86 "Hg1 mi
8:00 PM59 °FPassing clouds.No wind59%29.83 "Hg1 mi
7:00 PM63 °FPassing clouds.No wind52%29.83 "Hg1 mi
6:00 PM66 °FPassing clouds.No wind46%29.80 "Hg1 mi
5:00 PM72 °FScattered clouds.No wind41%29.80 "Hg2 mi
4:00 PM73 °FScattered clouds.No wind31%29.80 "Hg2 mi
3:00 PM77 °FLight snow. Cloudy.N/A28%29.80 "HgN/A
2:00 PM77 °FLight snow. Cloudy.N/A32%29.83 "HgN/A
1:00 PM75 °FHaze.No wind36%29.86 "Hg2 mi
12:00 PM70 °FHaze.No wind43%29.92 "Hg2 mi
11:00 AM68 °FHaze.No wind49%29.95 "Hg1 mi
10:00 AM59 °FSunny.No wind59%29.95 "Hg1 mi
9:00 AM55 °FCool.N/A63%29.95 "HgN/A
8:00 AM48 °FCool.N/A71%29.95 "HgN/A
7:00 AM48 °FScattered clouds.No wind82%29.92 "Hg2 mi
6:00 AM46 °FPassing clouds.No wind71%29.95 "Hg2 mi
Weather by CustomWeather, © 2014

See weather overviewHow to use our weather pages